Content
SEND FEEDBACK

Daily
Averages
Monthly
Summary
United States of America

UPI, GUAM


Home > North America > United States > Guam
Elevation: 53 feet     Latitude: 13 34N     Longitude: 144 55E

WEATHER
 
SELECT A DAY
Number of Records: 209,308;   Date Range: 1/1/95 - 9/18/14
 
SHARE

PRINT THIS DATA

[ ← Previous Day ]
WEATHER ALMANAC - JULY 22, 2014
[ Next Day → ]
[ °C ]   °F
Weather ElementAverageHighLow
Temperature84.5 °F88 °F (1:54 pm)78.8 °F (11:21 pm)
Dewpoint77.8 °F79.2 °F (11:54 am)75.9 °F (3:54 am)
Humidity80.6 %100 % (11:21 pm)70 % (1:16 pm)
Barometer29.82 in29.87 in (11:07 am)29.77 in (3:54 pm)
Wind Speed8.9 mph13.8 mph (8:54 am)
Wind Gust18.4 mph (8:54 am)
Weather ElementAverage
Visibility9.5 mi
Wind DirectionESE (96.6 °)

Weather ElementTotal
Precipitation0.53 in
Cooling Degree Days18.4 (Base 65)
Growing Degree Days33.4 (Base 50)
Averaged from 32 records on July 22, 2014
WEATHER CONDITIONS BREAKOUT
WIND DIRECTION BREAKOUT
WEATHER BY HOUR - JULY 22, 2014
[ °C ]   °F
Local TimeTemperatureDewpointHumidityBarometerVisibilityWind DirectionWind SpeedGust SpeedPrecipitationEventsConditions
1:54 AM81.0 °F77.0 °F88 %29.82 in10.0 miESE (120°)4.6 mphPartly Cloudy
2:54 AM81.0 °F77.0 °F88 %29.81 in10.0 miSE (130°)5.8 mphPartly Cloudy
3:54 AM82.0 °F75.9 °F82 %29.81 in10.0 miESE (110°)6.9 mphScattered Clouds
4:54 AM82.0 °F75.9 °F82 %29.80 in10.0 miESE (110°)8.1 mphPartly Cloudy
5:54 AM81.0 °F77.0 °F88 %29.82 in10.0 miSE (130°)5.8 mphScattered Clouds
6:54 AM82.0 °F77.0 °F85 %29.84 in10.0 miEast (90°)6.9 mphClear
7:54 AM82.9 °F77.0 °F82 %29.83 in10.0 miEast (90°)10.4 mphClear
8:54 AM84.9 °F78.1 °F80 %29.85 in10.0 miEast (100°)13.8 mph18.4 mphScattered Clouds
9:54 AM86.0 °F78.1 °F77 %29.85 in10.0 miESE (110°)10.4 mphMostly Cloudy
10:54 AM86.7 °F79.0 °F78 %29.84 in10.0 miESE (110°)11.5 mph17.3 mphMostly Cloudy
11:07 AM86.0 °F78.8 °F79 %29.87 in10.0 miEast (100°)11.5 mphMostly Cloudy
11:54 AM87.1 °F79.2 °F77 %29.83 in10.0 miEast (90°)12.7 mphScattered Clouds
12:54 PM87.4 °F78.8 °F75 %29.82 in10.0 miESE (120°)10.4 mphScattered Clouds
1:16 PM87.8 °F77.0 °F70 %29.84 in10.0 miESE (110°)9.2 mphMostly Cloudy
1:54 PM88.0 °F78.1 °F72 %29.81 in10.0 miEast (90°)13.8 mphMostly Cloudy
2:02 PM87.8 °F78.8 °F75 %29.82 in10.0 miEast (100°)11.5 mphPartly Cloudy
2:37 PM87.8 °F77.0 °F70 %29.82 in10.0 miEast (80°)12.7 mphMostly Cloudy
2:54 PM87.1 °F77.0 °F72 %29.79 in10.0 miEast (90°)13.8 mphMostly Cloudy
3:01 PM87.8 °F77.0 °F70 %29.81 in10.0 miESE (110°)9.2 mphMostly Cloudy
3:54 PM88.0 °F77.0 °F70 %29.77 in10.0 miENE (70°)12.7 mphMostly Cloudy
4:01 PM87.8 °F78.8 °F75 %29.80 in10.0 miEast (100°)13.8 mphMostly Cloudy
4:54 PM86.0 °F78.1 °F77 %29.78 in10.0 miEast (80°)10.4 mph0.00 inScattered Clouds
5:54 PM86.0 °F77.0 °F74 %29.79 in10.0 miENE (70°)11.5 mphPartly Cloudy
6:54 PM84.0 °F77.0 °F79 %29.81 in10.0 miEast (90°)6.9 mphPartly Cloudy
7:54 PM84.0 °F78.1 °F82 %29.82 in10.0 miENE (70°)8.1 mphPartly Cloudy
8:54 PM82.9 °F78.1 °F85 %29.82 in10.0 miEast (80°)8.1 mphPartly Cloudy
9:54 PM82.9 °F78.1 °F85 %29.83 in10.0 miEast (90°)5.8 mphPartly Cloudy
10:54 PM82.0 °F78.1 °F88 %29.83 in6.0 miSE (130°)4.6 mph0.00 inRainHeavy Rain
11:03 PM82.4 °F78.8 °F89 %29.86 in2.0 miCalm0.08 inRainHeavy Rain
11:11 PM82.4 °F78.8 °F89 %29.85 in6.0 miESE (110°)4.6 mph0.15 inRainLight Rain
11:21 PM78.8 °F78.8 °F100 %29.85 in10.0 miESE (120°)3.5 mph0.15 inScattered Clouds
11:54 PM79.3 °F78.1 °F96 %29.82 in10.0 miEast (90°)5.8 mph0.15 inClear
Hourly data recorded from PGUM, located miles away from Upi, Guam







STORIES FROM OUR PARTNERS